www.pogodaiklimat.ru

Погода и климат >> Архив погоды >> Иран >> Bandarabbass


ПОГОДА в Bandarabbass

  • Прогноз погоды в Bandarabbass
  • Монитор погоды в Bandarabbass
  • Климат города

АРХИВ ПОГОДЫ в Bandarabbass

Время (UTC), дата Ветер
(напр.,м/с)
 
Видим.   Явления Облачность Т
(С)
Тd
(С)
f
(%)
Тe
(С)
Тes
(С)
Комфортность P
(гПа)
Po
(гПа)
Тmin
(С)
Tmax
(С)
R
(мм)
R24
(мм)
S
(см)
21 10.10 СВ 3 3000 м дымка ясно +28.7 +25.8 84 +43 +43 опасность
перегрева
1005.9 1004.8
00 11.10 С 3 3000 м дымка ясно +27.8 +25.8 89 +41 +41 опасность
перегрева
1005.9 1004.8
03 11.10 С 3 2500 м дымка 3/3 750 м
[Sc diur, vesp]
+27.8 +26.4 92 +42 +43 опасность
перегрева
1007.3 1006.2 +27.3
06 11.10 СВ 4 4000 м мгла ясно +33.0 +25.5 65 +48 +54 опасность
перегрева
1008.4 1007.3
09 11.10 Ю 4 4000 м мгла 1/1 600 м
[Cu hum]
+35.1 +24.8 55 +48 +56 опасность
перегрева
1006.5 1005.5
12 11.10 ЮЗ 4 4000 м мгла 1/1 900 м
[Cu hum]
+35.0 +26.4 61 +51 +54 опасность
перегрева
1005.5 1004.4
15 11.10 ЮЗ 3 4000 м дымка ясно +32.1 +28.3 80 +53 +53 опасность
перегрева
1005.9 1004.8 +36.0
18 11.10 С 2 4000 м дымка ясно +29.0 +25.3 80 +42 +42 опасность
перегрева
1006.6 1005.5
21 11.10 С 3 3000 м дымка ясно +27.7 +25.4 87 +40 +40 очень
душно
1006.6 1005.5
00 12.10 С 3 3000 м дымка ясно +27.4 +25.7 90 +40 +40 очень
душно
1006.4 1005.3
03 12.10 С 2 2000 м дымка ясно +26.4 +25.3 94 +38 +39 очень
душно
1008.0 1006.9 +26.1
06 12.10 В 2 3500 м мгла ясно +33.9 +24.5 58 +47 +56 опасность
перегрева
1009.0 1007.9
09 12.10 ЮЗ 6 4000 м мгла ясно +35.6 +21.7 45 +44 +49 опасность
перегрева
1007.2 1006.1
12 12.10 ЮЗ 6 4000 м мгла 1/1 900 м
[Cu hum]
+35.6 +25.5 56 +50 +51 опасность
перегрева
1005.8 1004.8
15 12.10 ЮЗ 5 5000 м мгла ясно +33.8 +26.1 64 +50 +50 опасность
перегрева
1006.0 1004.9 +36.8
18 12.10 ЮВ 3 5000 м мгла ясно +31.6 +24.4 66 +44 +44 опасность
перегрева
1006.7 1005.6
21 12.10 СВ 3 4000 м мгла ясно +28.0 +23.5 77 +38 +38 очень
душно
1006.7 1005.6
00 13.10 С 2 4000 м дымка 1/1 900 м
[Sc]
+26.1 +23.0 83 +35 +35 очень
душно
1006.4 1005.3
03 13.10 С 2 4000 м дымка ясно +25.9 +23.4 86 +35 +35 очень
душно
1007.6 1006.5 +25.1
06 13.10 штиль 0 4000 м мгла ясно +33.0 +26.4 68 +49 +62 опасность
перегрева
1008.7 1007.6
09 13.10 ЮЗ 4 4000 м мгла ясно +35.0 +25.7 59 +50 +59 опасность
перегрева
1006.8 1005.7
12 13.10 Ю 7 5000 м мгла ясно +34.1 +27.3 68 +53 +54 опасность
перегрева
1005.0 1003.9
15 13.10 ЮЗ 4 5000 м мгла ясно +32.0 +27.5 77 +51 +51 опасность
перегрева
1005.1 1004.0 +35.7
18 13.10 ЮЗ 5 5000 м дымка ясно +30.6 +27.0 81 +48 +48 опасность
перегрева
1005.9 1004.8
21 13.10 С 2 5000 м дымка ясно +26.8 +24.2 86 +37 +37 очень
душно
1005.8 1004.7
00 14.10 С 2 4000 м дымка ясно +26.4 +24.5 89 +37 +37 очень
душно
1006.4 1005.3
03 14.10 С 2 3500 м дымка 4/4 900 м
[Sc]
+26.4 +25.3 94 +38 +38 очень
душно
1007.7 1006.6 +25.4
06 14.10 В 2 4000 м мгла 3/3 900 м
[Sc diur, vesp]
+32.6 +26.2 69 +49 +55 опасность
перегрева
1009.3 1008.2
09 14.10 Ю 4 5000 м мгла ясно +34.3 +26.9 65 +52 +61 опасность
перегрева
1006.7 1005.7
12 14.10 ЮЗ 6 4000 м мгла ясно +34.0 +26.4 65 +51 +52 опасность
перегрева
1005.0 1003.9
15 14.10 ЮЗ 3 6000 м мгла ясно +32.4 +24.7 64 +45 +45 опасность
перегрева
1004.8 1003.7 +37.1
18 14.10 ЮЗ 2 6000 м мгла ясно +30.3 +20.3 55 +37 +37 очень
душно
1005.6 1004.5
21 14.10 С 2 7000 м дымка ясно +25.3 +22.5 84 +33 +33 очень
душно
1006.4 1005.3
00 15.10 С 2 3000 м дымка ясно +24.3 +22.4 89 +32 +32 очень
душно
1006.8 1005.7
03 15.10 С 2 6000 м дымка ясно +24.5 +22.9 91 +32 +33 очень
душно
1008.2 1007.1 +23.9
06 15.10 С 3 6000 м мгла ясно +33.4 +21.4 49 +41 +49 опасность
перегрева
1009.6 1008.5
09 15.10 Ю 4 10 км ясно +35.0 +23.3 51 +46 +54 опасность
перегрева
1007.7 1006.6
12 15.10 ЮЗ 6 7000 м мгла ясно +34.6 +24.3 55 +47 +48 опасность
перегрева
1006.2 1005.1
15 15.10 З 4 10 км ясно +32.0 +23.2 60 +43 +43 опасность
перегрева
1006.4 1005.3 +36.4
18 15.10 ЮЗ 2 10 км ясно +30.2 +22.5 63 +39 +39 очень
душно
1007.3 1006.2
21 15.10 С 3 6000 м дымка ясно +24.2 +21.3 84 +31 +31 очень
душно
1007.7 1006.6
00 16.10 С 2 6000 м дымка ясно +22.7 +20.7 88 +30 +30 очень
душно
1007.7 1006.6
03 16.10 СЗ 3 6000 м дымка ясно +22.2 +20.5 90 +29 +29 очень
душно
1009.0 1007.9 +21.8
06 16.10 СВ 2 6000 м мгла ясно +32.3 +23.3 59 +43 +52 опасность
перегрева
1010.2 1009.1
09 16.10 ЮЗ 6 6000 м мгла ясно +33.6 +24.3 58 +46 +51 опасность
перегрева
1007.8 1006.6
12 16.10 ЮЗ 6 5000 м мгла ясно +34.0 +26.0 63 +50 +51 опасность
перегрева
1006.1 1005.0
15 16.10 ЮЗ 4 5000 м мгла ясно +31.7 +25.9 71 +47 +47 опасность
перегрева
1006.2 1005.1 +35.1
18 16.10 ЮЗ 3 6000 м мгла ясно +30.2 +25.3 75 +44 +44 опасность
перегрева
1007.2 1006.1
21 16.10 С 2 6000 м дымка ясно +25.0 +22.2 84 +32 +32 очень
душно
1007.3 1006.2
00 17.10 С 2 5000 м дымка ясно +24.7 +22.8 89 +33 +33 очень
душно
1007.3 1006.2
03 17.10 С 3 4000 м дымка ясно +24.8 +23.0 90 +33 +33 очень
душно
1008.3 1007.2 +24.3
06 17.10 СВ 3 4000 м мгла ясно +31.0 +25.2 71 +45 +52 опасность
перегрева
1010.1 1009.0
09 17.10 Ю 4 4000 м мгла ясно +34.0 +25.2 60 +48 +57 опасность
перегрева
1007.8 1006.7
12 17.10 Ю 6 4000 м мгла ясно +33.2 +25.2 63 +47 +49 опасность
перегрева
1006.1 1005.0
15 17.10 ЮЗ 4 4000 м мгла ясно +31.4 +25.7 72 +46 +46 опасность
перегрева
1006.2 1005.1 +34.6

 

Местоположение метеостанции Bandarabbass (Иран): широта 27.22 долгота 56.37 высота над уровнем моря 10 м.

В архиве по умолчанию представлена погода в Bandarabbass за последнюю неделю. Архивные данные за месяц целиком и за предыдущие месяцы, начиная с января 2011 года, Вы можете получить, выбрав интересующий диапазон дат из раскрывающегося списка и нажав кнопку "Ввод!".

Внимание! Время в таблицах - всемирное. Для получения местного времени необходимо прибавить поправку, которая в Bandarabbass равна 3.5 ч.

Смотрите также архив погоды в соседних городах и на ближайших метеорологических станциях:

Погода в Khasab (Оман) (113 км)
Погода в Khasab Airport (Оман) (118 км)
Погода в Kahnuj (Иран) (155 км)
Погода в Bandar Lengeh (Иран) (169 км)
Погода в Diba (Оман) (178 км)
Погода в Ras Al Khaimah Int Airport (ОАЭ) (183 км)
Погода в Abu Musa Island (Иран) (218 км)
Погода в Baft (Иран) (224 км)
Погода в Jask (Иран) (225 км)
Погода в Sharjah (ОАЭ) (227 км)

Пояснения к столбцам:

Ветер - указаны скорость ветра в м/с - средняя за 10 мин, порывы в срок и между сроками (в фигурных скобках) и направление, откуда дует ветер: С - северный, СВ - северо-восточный, В - восточный, ЮВ - юго-восточный, Ю - южный, ЮЗ - юго-западный, З - западный, СЗ - северо-западный.
Видимость - горизонтальная дальность видимости в метрах или километрах. При видимости от 1 до 10 км при отсутствии осадков обычно наблюдается дымка, при ухудшении видимости до 1 км и менее - туман. В сухую погоду видимость может ухудшаться дымом, пылью или мглою.
Явления - указаны атмосферные явления, наблюдавшиеся в срок или в последний час перед сроком; фигурными скобками обозначены явления, наблюдавшиеся между сроками (за 1-3 часа до срока); квадратными скобками обозначены град или гололедные отложения с указанием их диаметра в мм.
Облачность - указаны через наклонную черту общая и нижняя облачность в баллах и высота нижней границы облаков в метрах; квадратными скобками обозначены формы облаков: Ci - перистые, Cs - перисто-слоистые, Cc - перисто-кучевые, Ac - высококучевые, As - высокослоистые, Sc - слоисто-кучевые, Ns - слоисто-дождевые, Cu - кучевые, Cb - кучево-дождевые. Подробнее классификацию облаков см. в Атласе облаков (PDF).
T - Температура воздуха - температура, измеренная на высоте 2 м над землей.
Td - Температура точки росы - температура, при понижении до которой содержащийся в воздухе водяной пар достигнет насыщения.
f - Относительная влажность воздуха - влажноcть воздуха, измеренная на высоте 2 м над землей.
Te - Эффективная температура - температура, которую ощущает одетый по сезону человек в тени. Характеристика душности погоды. При расчете учитывается влияние влажности воздуха и скорости ветра на теплоощущения человека.
Tes - Эффективная температура на солнце - температура, которую ощущает человек, с поправкой на солнечный нагрев. Характеристика знойности погоды. Зависит от высоты солнца над горизонтом, облачности и скорости ветра. Ночью, в пасмурную погоду, а также при ветре 12 м/с и более поправка равна нулю.
P - Атмосферное давление - приведенное к уровню моря атмосферное давление.
Po - Атмосферное давление - измеренное на уровне метеостанции атмосферное давление.
Tmin - Минимальная температура - минимум температуры воздуха на высоте 2 м над землей.
Tmax - Максимальная температура - максимум температуры воздуха на высоте 2 м над землей.
R - Количество осадков - Количество выпавших осадков за период времени, мм. При наведении курсора мыши на число - период времени, за который выпало указанное количество осадков.
R24 - Количество осадков - Количество выпавших осадков за 24 часа, мм.
S - Снежный покров - Высота снежного покрова, см. При наведении курсора мыши на число - состояние снежного покрова и степень покрытия местности в баллах.